Regional Weather Roundup
Issued by NWS

Home | Current Version | Previous Version | Graphics & Text | Print | Product List | Glossary On
Versions: 1 2 3 4 5 6 7 8 9 10 11 12 13 14 15 16 17 18 19 20 21 22 23 24 25 26 27 28 29 30 31 32 33 34 35 36 37 38 39 40 41 42 43 44 45 46 47 48 49 50
000
ASUS43 KDTX 191001
RWRMI
MICHIGAN HOURLY REGIONAL WEATHER ROUNDUP
NATIONAL WEATHER SERVICE DETROIT/PONTIAC MI
500 AM EST MON FEB 19 2018

NOTE: "FAIR" INDICATES FEW OR NO CLOUDS BELOW 12,000 FEET WITH NO
SIGNIFICANT WEATHER AND/OR OBSTRUCTION TO VISIBILITY.

MIZ047>049-052>055-059>063-066>070-074>076-081>083-191100-
SOUTHEAST LOWER MICHIGAN

CITY           SKY/WX    TMP DP  RH WIND       PRES   REMARKS
ADRIAN         MIX PCPN  32  29  88 SE7       29.99F WCI  26
ANN ARBOR      CLOUDY    33  29  85 SE5       30.00S WCI  29
BAD AXE        FAIR      32  27  82 S15       29.99S WCI  22
CARO           CLOUDY    34  28  80 SE7       29.97R WCI  28
DETROIT CITY   CLOUDY    33  28  81 CALM      30.04R
DETROIT        CLOUDY    34  29  82 SE5       30.03R WCI  30
FLINT          CLOUDY    37  29  72 S12       29.98S WCI  29
GROSSE ILE     CLOUDY    34  29  83 S6        30.04R WCI  29
HILLSDALE      MIX PCPN  32  32 100 S8        29.97R WCI  25
HOWELL         CLOUDY    35  31  85 SE8       29.96F WCI  28

CITY           SKY/WX    TMP DP  RH WIND       PRES   REMARKS
JACKSON        MIX PCPN  37  31  78 S12       29.95F WCI  29
LAMBERTVILLE   CLOUDY    36  30  80 CALM      30.03R
LANSING        LGT RAIN  37  31  78 S9        29.94F WCI  30
LAPEER         CLOUDY    34  28  80 S7        30.00S WCI  28
MASON          CLOUDY    37  29  74 S8        29.95F WCI  30
MONROE         CLOUDY    32  29  89 E3        30.02S
MT. CLEMENS    CLOUDY    32  32  99 S6        30.03R WCI  27
PONTIAC        CLOUDY    34  28  79 S8        30.00S WCI  27
PORT HOPE        N/A     32  26  78 SE5       29.98S WCI  27
PORT HURON     CLOUDY    32  27  80 S6        30.05R WCI  26
TRI CITIES     CLOUDY    34  28  79 S8        29.96S WCI  27
MIDLAND        MOCLDY    34  29  82 S5        29.95R WCI  30
TROY           CLOUDY    35  29  81 SE3       30.05R
SAGINAW HB     CLOUDY    34  30  86 S6        29.96S WCI  29
$$
MIZ043>046-050>051-056>058-064>065-071>073-077>080-191100-
SOUTHWEST LOWER MICHIGAN

CITY           SKY/WX    TMP DP  RH WIND       PRES   REMARKS
BATTLE CREEK   LGT RAIN  37  31  78 S10       29.93S WCI  30
BENTON HARBOR  CLOUDY    41  34  76 S7        29.90S
BIG RAPIDS     CLOUDY    32  28  83 CALM      29.89F
COLDWATER      LGT RAIN  35  34  94 SE7       29.94R WCI  29
FREMONT        CLOUDY    36  27  69 SE3       29.88F
HOLLAND        CLOUDY    41  32  70 S9        29.90S
GRAND RAPIDS   CLOUDY    39  31  72 S9        29.91S WCI  33
IONIA          CLOUDY    36  31  83 S7        29.92S WCI  30
KALAMAZOO      CLOUDY    39  32  76 S10       29.92S WCI  32
LUDINGTON      CLOUDY    39  31  75 S6        29.86F WCI  34
MARSHALL       DRIZZLE   37  32  83 S8        29.94S WCI  30
MOUNT PLEASANT FAIR      32  28  84 CALM      29.93S
MUSKEGON       CLOUDY    41  30  65 S9        29.88F
SOUTH HAVEN    CLOUDY    40  34  81 S7        29.90S WCI  35
$$
MIZ016>042-191100-
NORTHERN LOWER MICHIGAN

CITY           SKY/WX    TMP DP  RH WIND       PRES   REMARKS
ALPENA         CLOUDY    31  28  89 S7        29.95S WCI  24
BEAVER ISLAND  CLOUDY    33  27  76 SE3       29.87F
BELLAIRE       FAIR      32  29  89 CALM      29.90F
CADILLAC       CLOUDY    33  29  86 S6        29.87S WCI  27
CHARLEVOIX     CLOUDY    33  27  79 S8        29.91F WCI  26
FRANKFORT      CLOUDY    38  30  71 SE3       29.86F
GAYLORD        MOCLDY    29  27  92 S10       29.89R WCI  20
GRAYLING       CLOUDY    30  28  90 S6        29.90R WCI  24
HARBOR SPRINGS CLOUDY    30  26  84 CALM      29.89S
HOUGHTON LAKE  CLOUDY    31  27  85 SE5       29.92R WCI  26
OSCODA         FAIR      31  26  81 S6        29.97S WCI  25
PELLSTON       CLOUDY    32  25  75 E3        29.90S
ROGERS CITY    MOCLDY    31  26  83 S8        29.94S WCI  24
TRAVERSE CITY  CLOUDY    40  29  64 S8G16     29.87S WCI  34
$$
MIZ007>008-015-191100-
EASTERN UPPER MICHIGAN

CITY           SKY/WX    TMP DP  RH WIND       PRES   REMARKS
KINROSS        CLOUDY    31  24  75 SE8       29.89F WCI  23
MACKINAC ISLAN CLOUDY    32  24  73 SE8       29.89F WCI  25
NEWBERRY       CLOUDY    31  26  83 S7        29.84F WCI  24
S. S. MARIE    CLOUDY    33  25  72 E3        29.88F
MUNISING         N/A     34  31  88 S6        29.83S WCI  29
$$
MIZ004>006-011>014-085-191100-
CENTRAL UPPER MICHIGAN

CITY           SKY/WX    TMP DP  RH WIND       PRES   REMARKS
MANISTIQUE     CLOUDY    33  32  96 SE6       29.83F WCI  27
ESCANABA       FAIR      29  27  92 CALM      29.84R FOG
MENOMINEE      FAIR      28  26  92 CALM      29.83S FOG
$$
MIZ001>003-009>011-084-191100-
WESTERN UPPER MICHIGAN

CITY           SKY/WX    TMP DP  RH WIND       PRES   REMARKS
IRON MOUNTAIN  MOCLDY    25  22  88 CALM      29.81R
HOUGHTON       CLOUDY    20  15  81 N13       29.91R WCI   7
COPPER HARBOR    N/A     21  17  84 NE23      29.93R WCI   5
IRONWOOD       CLOUDY    17  15  92 NE8       29.93R WCI   7
$$

ABBREVIATIONS USED IN REMARKS
   TC - TEMPERATURE IN CELSIUS
  WCI - WIND CHILL INDEX
   HX - HEAT INDEX
  VSB - VISIBILITY





USA.gov is the U.S. government's official web portal to all federal, state and local government web resources and services.